Back to catalog

STARLINK-5336

AliveCommunicationsVLEO
NORAD 57138·PAYLOAD·🇺🇸 United States

Launched Jun 23, 2023 from Cape Canaveral Space Force Station

Loading…

Next Passes (next 24 hours)

TLE

FreshSource: CelesTrak SupGP

Epoch: Sep 14, 2026, 21:33 UTC

1 57138C 23090AP  26257.89840278  .00020307  00000+0  73557-3 0  2574
2 57138  43.0036 274.6226 0001570 291.5387  24.7659 15.27565298    13

Track STARLINK-5336 in real time with AllMySat

Download on the App Store